Tracking 19245 objects as of 17-Aug-2018
HD Live streaming from Space Station
objects crossing your sky now

FENGYUN 1C DEB

Track FENGYUN 1C DEB now!
10-day predictions


NORAD ID: 29736
Int'l Code: 1999-025AA
Perigee: 880.7 km
Apogee: 2,028.9 km
Inclination: 99.4 °
Period: 114.8 minutes
Semi major axis: 7825 km
RCS: 0.0752 m2 (small)
Launch date: May 10, 1999
Source: People's Republic of China (PRC)
Launch site: Taiyaun Space Center, China (TSC)

Note: This is SATELLITE DEBRIS
aabbcc
Your satellite tracking list
Your tracking list is empty




NASA's NSSDC Master Catalog

Two Line Element Set (TLE):
1 29736U 99025AA  18228.40799969 +.00000482 +00000-0 +11644-2 0  9998
2 29736 099.4398 165.3340 0733592 148.1954 336.9457 12.54036742529810
Source of the keplerian elements: AFSPC